Helicity
35 11 22 7 24 -26 27 21 -28 53 -35 7 -6 126 -12 43 28 48 30 75 42 38 41 -3 13 60 33 50 46 26 13 5 -4 -20 -25 -30 -33 -38 -37 -25 -18 43 23 43
20 20 -19 -1 -41 -16 -18 -19 -26 34 41 9 -7 -10 47 62 34 54 39 59 35 46 39 26 9 17 46 37 31 26 25 7 -6 -10 -15 -33 -28 -18 11 -6 4 49 54 67
3 1 39 5 13 -1 -16 -20 48 4 9 -2 -1 3 48 48 51 41 26 35 37 46 66 48 23 27 24 25 46 30 26 29 13 -13 -9 -18 -24 -33 11 25 42 58 58 75
6 0 35 17 -13 3 1 -17 16 24 27 24 -6 44 20 62 50 58 59 36 46 38 40 54 44 35 39 25 25 13 14 14 20 -1 -4 17 25 43 45 55 72 97 87 90
32 -1 39 -12 -14 11 -40 -12 28 8 21 22 21 6 64 12 53 47 50 69 42 46 37 42 63 59 64 54 43 36 17 20 16 45 8 45 38 49 47 76 89 84 118 107
-21 14 20 -6 -11 -15 -18 12 12 -10 -7 16 30 -32 57 25 2 35 51 63 60 56 38 31 39 50 41 48 56 48 32 32 31 53 69 44 99 52 70 180 118 89 193 179
-23 46 1 -32 -2 17 -5 -2 1 -8 6 16 21 35 15 20 23 33 21 24 76 66 32 27 28 36 31 63 62 54 50 43 53 54 71 88 91 75 65 153 237 158 176 266
68 51 17 54 -25 22 52 -18 -21 -29 -28 19 61 33 7 30 73 45 18 20 16 37 56 27 25 47 45 63 95 81 68 61 74 80 109 79 98 91 117 213 238 299 259 220
42 0 69 43 16 -33 -18 32 -22 -46 34 39 -10 12 38 16 21 18 12 26 17 25 12 40 33 32 41 64 102 139 70 75 71 100 145 114 141 169 156 205 227 254 312 385
-26 22 45 81 21 6 -38 25 -7 -17 -16 14 14 8 35 39 0 44 1 18 32 41 49 41 32 41 38 36 75 142 96 56 76 101 212 200 146 127 158 228 237 261 255 262
-86 44 63 131 68 24 62 1 -7 -6 -21 5 11 16 63 58 19 27 26 44 29 45 48 37 32 29 45 87 83 112 101 54 67 80 118 176 137 157 197 271 191 181 228 236
-33 40 47 79 36 -2 -3 18 40 22 7 12 32 35 17 21 19 56 14 52 56 44 44 46 48 50 57 64 72 80 72 65 113 140 86 153 188 256 265 244 168 188 188 169
27 38 104 38 53 61 7 23 -16 -30 -46 42 64 66 23 33 37 10 12 20 50 51 54 65 78 74 79 74 73 74 73 76 78 81 114 174 222 194 190 168 168 223 229 269
64 70 67 73 53 60 47 -3 -5 18 30 16 -21 26 11 19 4 8 21 55 29 69 73 57 85 98 104 101 84 107 117 142 159 169 150 139 156 150 155 176 198 210 255 290
27 45 61 36 14 7 25 46 22 2 12 14 11 14 9 15 45 37 105 117 77 64 78 90 114 135 125 132 147 179 199 216 190 181 158 199 154 148 156 169 160 147 166 167
89 79 34 31 22 20 12 11 16 0 23 -1 -9 -25 25 26 39 55 41 80 80 72 84 100 156 191 212 169 211 213 209 195 181 206 227 200 192 185 212 252 281 256 230 217
90 110 97 74 34 30 10 24 1 4 -38 -8 -11 -24 24 16 43 49 31 104 125 120 89 116 169 213 254 256 229 246 226 221 212 200 185 178 198 226 242 239 230 239 228 212
148 134 113 123 131 112 41 17 12 7 -30 -20 -16 -7 20 40 54 112 119 165 200 180 193 170 198 224 263 280 276 240 204 187 181 178 178 195 225 235 226 242 247 229 205 175
122 127 174 117 96 75 28 28 42 12 5 -3 -23 25 24 51 154 152 149 208 225 204 197 243 281 299 295 259 218 183 171 162 167 186 215 222 198 210 228 249 237 203 183 159
169 146 153 110 72 30 27 24 33 4 12 15 12 15 54 96 124 116 197 207 288 287 271 274 292 273 241 203 167 161 168 191 215 219 201 197 222 243 271 269 245 227 192 185
193 193 129 117 100 57 42 3 62 40 -36 28 50 62 63 90 93 155 202 230 224 250 267 266 237 210 179 159 167 195 207 218 193 193 219 257 267 248 225 191 170 158 138 112
217 194 154 116 77 39 79 132 84 40 1 55 50 36 50 112 299 233 204 206 268 260 239 216 201 184 175 182 192 210 219 193 181 186 220 230 212 182 176 178 156 150 160 157
23 167 121 118 94 86 72 46 34 -14 31 60 42 47 76 259 266 238 208 229 252 232 216 193 203 222 225 222 217 229 199 184 184 217 234 242 239 221 198 194 188 199 187 177
33 43 88 136 112 67 53 16 24 34 27 39 60 71 101 210 236 218 203 213 241 242 226 228 240 249 269 268 262 230 210 194 208 246 266 258 238 216 204 189 192 208 194 185
79 36 53 54 65 66 64 46 14 49 68 81 88 98 133 177 195 201 206 238 248 248 264 255 273 305 314 310 295 269 251 230 244 265 272 276 266 250 228 224 214 196 196 196
64 63 89 70 12 76 20 44 19 25 46 50 65 140 169 161 160 190 222 242 280 312 293 304 322 353 380 357 346 326 293 275 279 298 307 294 268 245 207 184 140 185 189 163
Wind_Speed
4 4 6 10 19 23 47 35 10 22 18 43 46 21 28 21 23 25 30 29 34 29 33 44 42 49 48 47 51 51 52 52 47 46 49 42 40 40 12 1 35 8 8 7
6 2 3 13 12 14 10 16 6 18 26 34 44 43 20 17 15 20 29 29 30 30 33 37 43 44 46 47 47 48 47 46 44 40 37 32 27 26 11 6 9 8 15 9
8 26 6 8 13 16 18 18 22 22 31 37 49 31 15 16 14 18 23 26 25 27 30 37 42 44 45 48 49 48 46 43 42 41 30 31 27 28 16 4 9 18 12 10
10 11 10 10 14 21 14 14 17 28 33 45 40 31 44 5 6 14 22 23 22 26 29 33 41 44 44 43 41 42 41 41 39 38 29 29 26 21 10 7 14 17 17 21
12 9 3 9 15 18 13 14 16 48 51 43 24 33 25 32 15 10 22 24 24 27 33 35 37 41 40 37 37 36 36 35 34 31 33 24 24 15 12 9 13 14 16 24
17 10 7 7 14 11 12 11 8 29 45 34 22 24 24 10 14 6 20 24 27 29 35 36 33 34 35 33 33 32 33 32 31 28 29 27 19 24 16 9 9 14 21 26
23 19 14 5 5 12 13 7 10 7 6 27 35 27 45 41 24 24 32 10 21 27 31 28 30 30 30 31 31 30 31 32 32 31 27 28 25 21 20 14 14 18 19 27
27 29 20 6 22 10 12 17 14 7 2 19 27 33 44 40 29 32 41 40 35 15 28 30 31 30 32 31 30 33 34 32 29 31 28 25 21 18 16 19 21 20 26 28
27 29 22 17 14 19 5 14 34 28 32 29 27 31 41 27 32 30 34 34 26 12 11 19 26 30 31 29 29 30 33 29 30 31 22 28 18 20 19 19 21 22 21 27
34 36 28 17 14 6 8 20 12 12 7 10 30 50 37 19 26 26 34 30 30 25 25 26 27 19 24 27 27 27 30 30 28 24 21 17 20 18 21 24 24 24 25 23
39 36 31 21 17 15 8 12 6 7 21 10 19 31 33 22 32 34 42 31 25 24 25 26 24 27 24 20 19 21 23 25 24 21 18 14 18 23 22 24 23 22 24 23
43 34 45 34 33 18 13 11 15 15 8 11 26 49 24 38 43 37 37 24 26 25 29 28 23 20 18 14 11 14 14 16 18 19 18 19 21 24 22 23 25 25 27 24
46 53 46 47 23 25 27 16 13 16 14 11 17 42 33 35 35 37 40 28 22 24 26 25 24 22 19 12 10 11 15 14 10 11 15 17 21 25 27 29 28 31 31 31
62 51 51 48 48 31 24 24 20 18 17 16 22 66 46 35 37 39 35 24 29 21 24 22 20 18 15 14 12 12 15 17 16 17 19 21 22 25 28 30 33 33 36 37
53 59 47 80 59 47 31 25 25 24 23 27 20 44 61 58 48 51 40 27 32 24 23 21 16 14 12 10 12 14 16 16 17 19 23 24 27 29 30 32 33 34 32 32
54 61 50 61 62 61 50 37 25 25 27 30 29 50 67 65 55 44 44 37 32 25 22 19 14 14 14 10 12 14 17 18 20 21 25 28 30 33 36 39 39 37 34 33
60 64 57 58 61 64 51 37 47 36 30 22 27 63 70 56 46 47 52 34 28 20 16 13 11 12 11 11 12 15 18 21 23 25 28 31 33 36 38 37 35 35 34 32
59 58 54 54 54 57 49 39 22 24 34 33 36 26 68 59 56 50 38 29 22 15 12 9 8 10 11 12 14 16 20 23 26 28 30 32 34 35 34 35 36 35 33 32
58 57 61 61 64 64 54 38 28 36 22 19 25 56 49 49 33 35 29 20 13 13 10 8 8 9 10 12 15 17 21 23 26 29 31 32 31 31 32 34 35 35 35 35
62 59 62 55 72 60 52 60 31 38 36 34 39 23 39 30 26 28 7 5 6 5 8 6 6 7 10 13 15 18 22 25 28 29 29 29 30 31 34 36 37 39 39 39
55 59 67 66 64 63 51 50 23 27 34 38 30 36 48 29 21 22 1 3 1 2 2 0 3 6 9 11 14 18 21 24 25 26 28 31 32 32 33 35 36 36 38 38
55 59 61 70 72 70 50 29 32 43 58 33 40 44 50 36 23 6 2 6 7 9 7 3 1 4 8 11 14 17 21 22 24 26 28 30 31 32 32 34 35 38 42 43
65 57 63 62 69 64 45 55 51 63 55 39 42 43 34 18 13 7 6 10 12 13 10 5 0 4 9 12 14 17 19 21 24 26 28 30 32 34 36 38 41 42 45 48
63 64 68 65 63 65 56 61 62 53 52 53 45 38 25 16 10 8 10 13 14 14 10 4 2 5 10 13 15 17 18 21 24 27 29 32 34 36 38 40 43 45 49 52
66 55 68 89 87 79 68 65 64 50 51 45 43 35 24 16 12 13 15 15 15 12 8 6 6 9 11 13 15 18 20 21 25 28 30 33 35 38 39 41 45 46 49 52
66 74 75 82 78 72 70 65 60 51 43 43 41 32 23 15 14 15 15 16 15 13 11 10 11 11 12 15 18 21 22 24 27 30 33 35 37 40 41 44 42 45 46 49
Wind_Direction
43 98 144 150 160 185 279 308 42 348 353 282 281 352 347 37 71 90 123 115 126 112 113 130 127 134 133 133 140 144 146 150 148 152 160 155 156 161 147 196 167 122 132 314
334 227 152 167 117 137 123 332 15 341 329 316 291 288 352 29 56 97 129 127 134 124 127 133 142 143 147 147 148 151 151 153 153 153 154 154 152 157 153 157 157 282 289 303
271 341 73 66 124 126 143 160 324 326 315 310 297 303 324 347 81 111 124 132 132 138 138 145 151 154 153 159 160 160 160 159 162 165 149 154 155 164 162 199 278 285 282 286
260 311 2 98 137 140 138 132 339 320 315 304 297 309 282 15 35 127 141 140 135 145 149 152 158 161 162 162 160 164 165 166 166 166 161 164 165 169 182 214 285 285 273 283
251 244 279 149 143 127 82 112 326 285 280 305 324 304 317 297 319 145 160 157 155 153 158 160 163 167 168 167 169 169 171 171 170 170 176 172 179 182 189 246 280 252 277 286
253 276 231 176 151 113 106 57 1 303 283 302 314 300 317 336 338 23 153 159 168 168 169 169 168 168 173 175 177 178 180 182 181 181 182 189 189 192 195 224 257 276 288 292
229 263 266 290 149 135 141 110 146 128 211 303 298 303 273 232 325 321 309 6 169 180 183 180 180 178 179 180 182 184 187 190 190 192 194 196 201 205 212 269 286 289 288 299
233 227 203 242 183 170 172 184 180 45 205 322 306 298 288 291 318 316 301 302 310 181 190 196 196 195 192 192 191 190 191 195 197 195 211 209 209 228 256 285 291 290 292 293
230 242 228 233 183 183 284 207 191 211 313 310 300 305 288 306 314 319 315 319 329 324 290 212 211 208 208 209 206 204 204 206 206 212 249 254 247 267 269 282 283 288 290 296
273 260 260 252 281 263 262 314 211 201 195 271 288 282 298 313 318 327 321 325 332 334 324 302 282 250 229 222 218 214 213 215 216 225 236 238 272 269 273 287 289 291 299 304
243 265 250 257 234 227 270 267 234 279 209 246 298 292 299 315 314 318 310 320 338 355 341 326 319 296 283 265 238 229 226 224 227 237 246 258 279 283 281 289 293 295 306 303
221 254 258 257 269 230 238 237 206 234 222 224 292 276 318 306 305 313 320 331 329 341 329 326 327 325 311 295 271 259 256 255 260 266 265 278 292 298 296 294 303 304 305 302
229 244 256 259 253 270 270 249 251 266 222 268 266 282 300 308 311 309 312 318 329 335 333 330 323 316 313 317 309 295 293 292 281 267 282 296 310 307 308 310 311 315 313 313
240 248 242 251 259 265 255 262 245 240 253 247 248 273 287 307 307 311 317 310 318 332 325 325 332 329 319 320 324 320 314 313 316 313 308 309 318 320 318 319 320 321 320 317
246 242 249 253 262 266 260 242 235 243 229 221 234 285 283 293 296 306 318 315 315 325 322 316 324 340 326 327 329 327 326 326 325 323 319 322 325 325 329 328 327 325 325 327
243 251 254 255 254 261 269 272 264 248 231 223 227 227 282 286 299 304 303 306 308 318 321 319 324 337 332 324 327 330 329 331 331 330 329 332 333 332 331 330 331 332 334 335
245 247 252 252 254 260 261 268 278 276 222 225 229 226 277 290 296 295 296 305 303 308 317 327 335 341 352 350 342 334 336 337 336 335 335 336 336 334 335 338 340 340 340 339
248 247 248 249 253 254 268 278 256 243 209 209 213 221 273 287 291 299 305 303 302 297 303 314 338 351 353 356 352 347 342 340 340 340 340 340 339 340 343 345 344 345 345 344
251 248 248 246 253 263 268 273 278 284 275 213 214 276 285 295 309 308 312 306 304 291 286 300 315 329 343 345 344 345 343 344 343 342 342 345 349 352 354 354 353 353 351 348
251 249 246 249 252 257 265 263 288 288 286 292 287 295 294 305 299 304 287 301 311 298 285 287 310 328 338 339 344 346 344 345 345 349 352 358 359 358 355 355 354 351 350 348
242 245 243 246 255 261 261 270 270 273 300 292 295 297 292 302 292 322 183 290 269 201 187 160 338 332 344 349 350 347 349 349 355 360 0 358 357 358 357 353 351 350 348 346
242 242 245 248 253 256 260 269 270 271 278 295 297 299 298 306 311 297 227 162 154 150 146 144 18 349 345 345 348 348 349 356 359 360 358 357 357 355 355 354 352 349 346 343
249 253 250 252 258 260 266 266 277 275 282 291 295 301 305 304 289 265 197 168 160 152 147 140 83 342 339 342 346 348 354 358 357 356 355 355 355 353 351 348 346 344 344 341
254 254 254 259 262 263 266 266 272 281 283 285 294 301 300 289 266 224 189 173 167 162 165 180 250 313 329 338 343 350 354 355 353 351 351 350 347 346 346 345 345 344 342 339
256 262 259 253 252 265 269 271 275 284 289 293 296 295 291 281 240 203 188 184 182 184 200 227 267 301 318 333 339 344 346 348 346 345 344 343 343 342 342 344 343 344 344 342
258 255 257 256 256 267 265 275 279 283 291 295 293 292 287 263 227 204 204 197 200 207 223 252 279 294 309 321 329 335 338 339 338 338 339 339 339 339 340 338 339 344 344 344